OBJECT B, 60746

Orbit data source: Space-Track

You're viewing an Uncataloged Satellite

Recently launched and/or uncataloged satellites may have evolving metadata. Metadata may include but not limited to: Owner, Maufacturer, Bus, Motor, and Mission.

OBJECT B, 60746 is a satellite owned by Yunyao yuhang (CN) in SSO that was launched on Thu, 29 Aug 2024 UTC via a GUSHENXING 1 launch vehicle from the Yellow Sea Launch Area, China (YSLA). Unknown objects in Earth's orbit typically refer to objects detected orbiting the Earth but have not yet been identified or cataloged. These objects could be anything from previously untracked satellites, spent rocket stages, debris from satellite collisions, or even natural meteoroids temporarily captured by Earth's gravity.

Loading next visibility...
Identifier
60746, 2024-153B
Orbit
SSO
Last TLE update
9 hours ago
Origin
Flag of CNYYAO (CN / PRC)
Manufacturer
Changguang WJ
Mission
Operational Commercial Weather
Bus & Motor
YY-1, Unknown motor
Mass
~50 kg wet, ~50 kg dry
Launch date (UTC)
2024-08-29 (8 months ago)
Launch vehicle
GUSHENXING 1
Launch site
Yellow Sea Launch Area, China (YSLA)
Object type
Unknown
Shape & HBR
Box + 1 Pan, 5 m
Radar Cross Section
5.339 m², Medium (>0.1 m² and < 1m²)

Expand to show TLE details & history

TLE from 9 hours ago
0 OBJECT B
1 60746U 24153B   25129.50278104  .00012118  00000-0  55118-3 0  9990
2 60746  97.6338 253.8747 0014299 135.2451 224.9941 15.20789617 38360
Epoch: 2025-05-09T12:04Z
Definitive object data (Epoch: 2025-05-09T12:04:00.281Z)
Latitude
0.00003°
Longitude
-154.68447°
Altitude
513.51 km
Speed
7.603 km/s
True Right ascension
16h 55m 29s
True Declination
0° 00' 00"
Sunlit
Object was in full shadow at TLE epoch
Visualization TLE readout
Latitude
-22.24024°
Longitude
22.5617°
Altitude
508.26 km
Speed
7.611 km/s
Apparent Right ascension
03h 48m 01s
Apparent Declination
-76° 59' 31"
Sunlit
Object is in daylight
Visualization observer readout
Local Sidereal Time
05:02:03
Azimuth
184.62° SSW
Elevation
-27.483°
Doppler factor
1
Orbital elements
Apogee altitude
510.268 km
Perigee altitude
490.597 km
Semi-major axis
6,878.569 km
Eccentricity
0.0014299
Inclination
97.6338°
RAAN
253.8747°
Arg. of periapsis
135.2451°
True anomaly
224.8784°
Mean anomaly
224.9941°
Eccentric anomaly
224.93623°
Mean motion
3.80449 °/min
BSTAR
0.00055118
Orbital period
94.63 mins
Loading maneuver chart data...
Loading SW <> Apogee altitude chart data...
Loading historical data...
Loading historical data...
Loading historical data...
Loading historical data...
Loading historical data...
Loading historical data...
Loading historical data...

OBJECT B Visibility forecast

Observer location: undefined°, undefined°

Span
Click to sort rows by Start time (UTC) header in descending order
Start Az.
Max El. time (UTC)
Max El. Az.
Max El.
End time (UTC)
End Az.
5 mins2025-05-10 08:43:51.467Z200.952° SSW2025-05-10 08:45:51.467Z251.795° W31.965°2025-05-10 08:48:51.467Z327.206° NNW
|